This is the latest recevied weather packets stored in our database for station/object K9UO. If no packets are shown the sender has not sent any weather packets the latest 10 day(s).
| Time | Temp. | Humidity | Pressure | Rain* | Wind** | Luminosity | Snow |
|---|---|---|---|---|---|---|---|
| 1777790759 | 2.78° C | 38% | 1017.8 hPa | 0 mm | - | - | - |
| 1777789864 | 3.33° C | 42% | 1017.9 hPa | 0 mm | - | - | - |
| 1777788957 | 3.33° C | 40% | 1018.1 hPa | 0 mm | - | - | - |
| 1777788066 | 2.78° C | 36% | 1018.3 hPa | 0 mm | - | - | - |
| 1777787148 | 3.33° C | 33% | 1018.3 hPa | 0 mm | - | - | - |
| 1777786246 | 3.33° C | 37% | 1018.4 hPa | 0 mm | - | - | - |
| 1777785344 | 3.33° C | 42% | 1018.5 hPa | 0 mm | - | - | - |
| 1777784443 | 3.33° C | 43% | 1018.4 hPa | 0 mm | - | - | - |
| 1777783542 | 3.89° C | 43% | 1018.4 hPa | 0 mm | - | - | - |
| 1777782639 | 3.89° C | 44% | 1018.4 hPa | 0 mm | - | - | - |
| 1777781738 | 3.89° C | 44% | 1018.3 hPa | 0 mm | - | - | - |
| 1777780837 | 3.89° C | 46% | 1018.4 hPa | 0 mm | - | - | - |
| 1777779931 | 4.44° C | 49% | 1018.4 hPa | 0 mm | - | - | - |
| 1777779048 | 4.44° C | 50% | 1018.4 hPa | 0 mm | - | - | - |
| 1777778128 | 4.44° C | 52% | 1018.4 hPa | 0 mm | - | - | - |
| 1777777221 | 5° C | 56% | 1018.4 hPa | 0 mm | - | - | - |
| 1777776313 | 5° C | 57% | 1018.4 hPa | 0 mm | - | - | - |
| 1777775426 | 5.56° C | 60% | 1018.4 hPa | 0 mm | - | - | - |
| 1777774504 | 5.56° C | 60% | 1018.4 hPa | 0 mm | - | - | - |
| 1777773674 | 6.11° C | 58% | 1018.3 hPa | 0 mm | - | - | - |
| 1777772756 | 6.11° C | 60% | 1018.2 hPa | 0 mm | - | - | - |
| 1777771862 | 6.67° C | 60% | 1018.2 hPa | 0 mm | - | - | - |
| 1777770960 | 6.67° C | 58% | 1018.1 hPa | 0 mm | - | - | - |
| 1777770052 | 7.22° C | 55% | 1018 hPa | 0 mm | - | - | - |
| 1777769141 | 7.78° C | 52% | 1017.9 hPa | 0 mm | - | - | - |
* Rain latest hour (hover to see other rain measurements)
** Current wind speed in m/s (hover to see current wind gust speed)